Simultaneous Nadir Overpasses (SNOs) Predictions

Prediction of SNOs between GOES-17 and NOAA-19 Satellite Orbit:

Table of predicted SNOs for the next 14.0 days since TLE Epoch: 5/16/2025
Index Date Time (GOES-17) GOES-17 Lat,Lon NOAA-19 Lat,Lon Distance(km) Time Diff (sec)
1 05/17/2025 04:41:25 -0.03,-104.37 0.06,-104.07 34.75 80
2 05/18/2025 04:28:48 -0.02,-104.37 0.75,-101.01 384.15 80
3 05/19/2025 16:59:54 0.02,-104.44 0.92,-108.49 461.61 80
4 05/20/2025 16:47:17 0.02,-104.44 0.22,-105.42 111.98 80
5 05/21/2025 16:37:19 0.01,-104.44 -0.47,-102.36 237.73 80
6 05/24/2025 04:56:05 -0.01,-104.37 -0.55,-106.84 280.66 80
7 05/25/2025 04:40:46 -0.01,-104.37 0.11,-103.76 68.94 80
8 05/26/2025 04:28:09 -0.01,-104.37 0.83,-100.70 418.34 80
9 05/27/2025 16:59:16 -0.00,-104.43 0.84,-108.19 428.60 80
10 05/28/2025 16:46:39 -0.00,-104.42 0.14,-105.12 79.32 80
11 05/29/2025 16:36:41 -0.01,-104.42 -0.57,-102.06 270.11 80
